Information Storage

This is the current data collected from the Raspberry Pis. Data is sampled asynchronously. The server scripts process and synchronize the data before storage.


Time PV Temperature (F) Irradiance (W/m2) Die Temperature (F) PV Voltage (V) Forecasted Irradiance (W/m2) Forecasted Power (W)
4/20/17 05:23:30 50.21 0 55.12 0
4/20/17 05:18:31 50.03 0 55.18 0
4/20/17 05:13:31 50.47 0 55.51 0
4/20/17 05:08:31 50.34 0 55.23 0.26
4/20/17 05:03:31 50.05 0 55.23 0.39
4/20/17 04:58:32 48.12 0 55.29 0.53
4/20/17 04:53:32 50.87 0 55.18 0.66
4/20/17 04:48:32 50.92 0 55.34 0.66
4/20/17 04:43:32 50.34 0 55.06 0.39
4/20/17 04:38:33 49.79 0 55.4 0
4/20/17 04:33:33 50.92 0 55.18 0.39
4/20/17 04:28:33 50.34 0 55.23 0
4/20/17 04:23:34 49.8 0 55.23 0.79
4/20/17 04:18:34 49.84 0 55.4 0.66
4/20/17 04:13:34 50.4 0 55.46 0.79
4/20/17 04:08:34 49.75 0 55.23 0
4/20/17 04:03:35 50.52 0 55.18 0.79
4/20/17 03:58:35 49.8 0 55.23 0
4/20/17 03:53:35 50.31 0 55.12 0
4/20/17 03:48:35 50.28 0 55.18 0
4/20/17 03:43:36 49.87 0 55.12 0
4/20/17 03:38:36 49.6 0 55.06 0.39
4/20/17 03:33:36 50.46 0 54.95 0.26
4/20/17 03:28:37 49.78 0 55.18 0
4/20/17 03:23:37 51.74 0 55.12 0.26
4/20/17 03:18:37 50.51 0 54.95 0.53
4/20/17 03:13:37 50.3 0 55.06 0.79
4/20/17 03:08:38 49.87 0 54.95 0.26
4/20/17 03:03:38 49.5 0 55.23 0.66
4/20/17 02:58:38 49.33 0 55.18 0.79
4/20/17 02:53:38 49.07 0 54.95 0.39
4/20/17 02:48:39 49.31 0 54.72 0.13
4/20/17 02:43:39 49.7 0 54.89 0
4/20/17 02:38:39 50.09 0 55.23 1.05
4/20/17 02:33:40 49.47 0 55.29 0
4/20/17 02:28:40 49.7 0 55.06 0.66
4/20/17 02:23:40 50.18 0 55.01 0.13
4/20/17 02:18:40 49.62 0 54.78 0.79
4/20/17 02:13:41 49.96 0 54.72 0
4/20/17 02:08:41 49.57 0 54.78 0.53
4/20/17 02:03:41 49.36 0 54.72 1.31
4/20/17 01:58:41 50.2 0 54.72 0.79
4/20/17 01:53:42 48.48 0 54.78 0.66
4/20/17 01:48:42 50.77 0 54.44 0.79
4/20/17 01:43:42 49.51 0 54.56 1.18
4/20/17 01:38:43 50.02 0 54.78 0.79
4/20/17 01:33:43 49.56 0 54.56 0.92
4/20/17 01:28:43 50.02 0 54.61 0.26
4/20/17 01:23:43 49.29 0 54.67 0.26
4/20/17 01:18:44 49.91 0 54.56 1.05
4/20/17 01:13:44 51 0 54.56 0.92
4/20/17 01:08:44 49.76 0 54.39 0.92
4/20/17 01:03:44 50.36 0 54.39 0.92
4/20/17 00:58:45 50.12 0 54.61 0.79
4/20/17 00:53:45 49.57 0 54.39 0.66
4/20/17 00:48:45 49.01 0 54.16 1.45
4/20/17 00:43:46 51.33 0 54.33 0.92
4/20/17 00:38:46 48.62 0 54.22 1.18
4/20/17 00:33:46 51.3 0 54.22 0.92
4/20/17 00:28:46 48.49 0 54.28 1.05
4/20/17 00:23:47 49.08 0 54.05 1.05
4/20/17 00:18:47 49.11 0 53.83 1.05
4/20/17 00:13:47 51.01 0 54.05 0.92
4/20/17 00:08:48 48.81 0 53.99 0.66
4/20/17 00:03:48 48.48 0 54.05 0.92
4/19/17 23:58:48 49.34 0 53.94 0.79
4/19/17 23:53:48 48.83 0 53.88 1.05
4/19/17 23:48:49 48.96 0 53.99 0.92
4/19/17 23:43:49 48.28 0 53.71 1.18
4/19/17 23:38:49 47.81 0 53.83 0.26
4/19/17 23:33:49 49 0 53.6 0.66
4/19/17 23:28:50 48.29 0 53.54 1.05
4/19/17 23:23:50 49.07 0 53.66 0.92
4/19/17 23:18:50 48.16 0 53.83 1.31
4/19/17 23:13:51 49.66 0 53.83 0.79
4/19/17 23:08:51 49.11 0 53.43 1.71
4/19/17 23:03:51 48.81 0 53.99 0.26
4/19/17 22:51:51 50.06 0 53.66 1.58
4/19/17 22:46:51 49.49 0 53.94 0.92
4/19/17 22:41:51 49.55 0 53.77 1.31
4/19/17 22:36:52 48.36 0 53.99 0.39
4/19/17 22:31:52 48.98 0 53.88 1.58
4/19/17 22:26:52 48.16 0 53.99 0.79
4/19/17 22:21:53 48.91 0 53.83 0.92
4/19/17 22:16:53 48.58 0 53.71 1.58
4/19/17 22:11:53 49.49 0 53.94 1.05
4/19/17 22:06:53 49.09 0 53.94 1.31
4/19/17 22:01:54 48.81 0 54.16 1.71
4/19/17 21:56:54 49.61 0 53.83 1.05
4/19/17 21:51:54 48.99 0 54.11 0.53
4/19/17 21:46:55 48.71 0 53.99 1.45
4/19/17 21:41:55 49.45 0 54.16 1.45
4/19/17 21:36:55 47.72 0 54.22 1.05
4/19/17 21:31:55 49.53 0 53.88 0.66
4/19/17 21:26:56 48.89 0 53.94 1.58
4/19/17 21:21:56 46.76 0 54.39 0.26
4/19/17 21:16:56 48.46 0 53.99 0
4/19/17 21:11:56 48.87 0 54.22 1.05
4/19/17 21:06:57 48.26 0 54.16 0.26
4/19/17 21:02:02 50.18 0 54.28 0.39
4/19/17 20:56:57 49.23 0 54.61 0.26
4/19/17 20:51:58 49.65 0 54.5 0.53
4/19/17 20:46:58 49.62 0 54.78 1.18
4/19/17 20:41:58 49.21 0 54.56 0.92
4/19/17 20:36:58 48.88 0 54.61 1.58
4/19/17 20:31:59 49.22 0 54.22 0.92
4/19/17 20:26:59 49.19 0 54.67 0.39
4/19/17 20:21:59 49.36 0 54.89 0.92
4/19/17 20:16:59 49.85 0 54.89 1.58
4/19/17 20:12:00 49.2 0 55.06 2.89
4/19/17 20:07:00 50.78 0 54.67 4.2
4/19/17 20:02:00 48.99 0 55.01 11.17
4/19/17 19:57:01 50.81 0 54.95 25.75
4/19/17 19:52:01 50.64 0 55.4 36
4/19/17 19:47:01 48.48 0 55.68 43.22
4/19/17 19:42:01 45.66 0 55.68 52.95
4/19/17 19:37:02 49.63 0 55.68 62.54
4/19/17 19:32:02 51.92 0 55.79 71.6
4/19/17 19:27:02 50.95 0 55.46 78.43
4/19/17 19:22:03 51.1 0 56.02 81.72
4/19/17 19:17:03 51.01 0 55.85 84.34
4/19/17 19:12:04 50.67 48.8281 56.24 85.26
4/19/17 19:07:03 50.78 0 55.91 88.29
4/19/17 19:02:04 50.34 0 56.3 95.51
4/19/17 18:57:04 51.47 0 56.47 100.64
4/19/17 18:52:04 49.75 0 56.81 102.08
4/19/17 18:47:04 50.47 0 57.09 105.1
4/19/17 18:42:05 51.94 0 56.92 107.34
4/19/17 18:37:05 53.49 0 56.36 107.2
4/19/17 18:32:05 51.51 0 56.75 105.1
4/19/17 18:27:06 53.88 0 56.36 103.26
4/19/17 18:22:06 48.77 0 56.69 102.61
4/19/17 18:17:06 50.52 0 56.58 103.92
4/19/17 18:12:06 51.22 0 56.08 103.53
4/19/17 18:07:07 52.09 0 56.58 107.34
4/19/17 18:02:07 51.84 0 56.36 107.34
4/19/17 17:57:07 52.18 0 56.53 108.91
4/19/17 17:52:07 52.11 0 56.97 109.96
4/19/17 17:47:08 52.14 0 56.92 109.04
4/19/17 17:42:08 55.16 0 56.97 108.12
4/19/17 17:37:18 57.58 0 57.14 107.99
4/19/17 17:32:08 53.21 0 57.93 109.04
4/19/17 17:27:09 54.45 0 57.03 107.86
4/19/17 17:22:09 52.95 0 57.88 107.73
4/19/17 17:17:09 54.93 0 57.88 104.71
4/19/17 17:12:10 54.09 0 57.82 106.81
4/19/17 17:07:10 52.8 0 58.38 107.86
4/19/17 17:02:10 53.37 0 58.83 108.78
4/19/17 16:57:10 54.86 0 58.83 109.7
4/19/17 16:52:24 55.21 0 58.21 110.49
4/19/17 16:47:11 54.64 0 58.89 112.07
4/19/17 16:42:16 56.7 0 59.39 112.2
4/19/17 16:37:17 56.51 0 59.9 113.12
4/19/17 16:32:12 55.39 0 60.13 112.72
4/19/17 16:27:15 55.83 0 60.35 113.12
4/19/17 16:22:12 53.97 24.4141 59.56 115.35
4/19/17 16:17:12 57.99 0 60.13 115.48
4/19/17 16:12:13 59.25 24.4141 60.58 116.01
4/19/17 16:07:13 57.53 0 60.63 116.27
4/19/17 16:02:13 60.7 0 60.63 115.48
4/19/17 15:57:14 59.98 0 61.03 114.43
4/19/17 15:52:14 58.07 0 61.03 115.09
4/19/17 15:47:14 60.64 0 61.7 113.12
4/19/17 15:42:14 61.05 0 61.53 113.64
4/19/17 15:37:15 61.02 0 62.21 114.82
4/19/17 15:32:15 57.59 24.4141 62.26 116.4
4/19/17 15:27:15 64.79 48.8281 62.15 117.85
4/19/17 15:22:15 61.3 48.8281 62.38 117.45
4/19/17 15:17:16 63.32 48.8281 62.71 118.11
4/19/17 15:12:16 65.8 97.6563 62.54 118.9
4/19/17 15:07:16 63.56 170.898 62.77 119.82
4/19/17 15:02:16 67.48 292.969 64.79 122.18
4/19/17 14:57:17 60.08 219.727 63.22 121.66
4/19/17 14:52:17 63.54 146.484 63.78 121.26
4/19/17 14:47:17 63.31 170.898 62.38 120.34
4/19/17 14:42:17 57.02 219.727 63.44 121.66
4/19/17 14:37:18 60.1 146.484 62.99 121
4/19/17 14:32:18 58.5 97.6563 61.53 119.95
4/19/17 14:27:18 60.78 73.2422 61.08 118.24
4/19/17 14:22:18 60.4 0 61.36 116.93
4/19/17 14:17:29 58.94 24.4141 61.93 117.19
4/19/17 14:12:19 54.23 24.4141 61.19 116.4
4/19/17 14:07:19 62.77 24.4141 61.59 117.32
4/19/17 14:02:20 60.49 24.4141 61.64 117.32
4/19/17 13:57:20 59.06 97.6563 62.49 118.77
4/19/17 13:52:20 62.03 48.8281 62.83 118.5
4/19/17 13:47:20 60.27 122.07 62.32 118.63
4/19/17 13:42:21 60.53 48.8281 63.5 118.77
4/19/17 13:37:21 63.53 122.07 64.62 119.42
4/19/17 13:32:26 63.85 146.484 62.04 119.95
4/19/17 13:27:21 61.77 219.727 63.33 119.69
4/19/17 13:22:22 59.92 170.898 63.33 119.29
4/19/17 13:17:25 63.77 219.727 63.78 119.95
4/19/17 13:12:22 69.36 219.727 63.84 119.95
4/19/17 13:07:22 64.04 292.969 63.61 119.95
4/19/17 13:02:23 65.45 366.211 64.12 118.77
4/19/17 12:57:23 78.04 512.695 68.06 117.06
4/19/17 12:52:23 79.73 1269.53 71.82 120.87
4/19/17 12:47:23 76.77 878.906 68.45 120.21
4/19/17 12:42:24 80.93 878.906 69.63 119.95
4/19/17 12:37:24 82.87 830.078 70.87 119.42
4/19/17 12:32:24 94.8 805.664 66.2 121.39
4/19/17 12:27:24 70.24 659.18 64.18 121.39
4/19/17 12:22:25 66.47 585.938 63.95 121.13
4/19/17 12:17:25 71.21 610.352 63.11 122.58
4/19/17 12:12:25 64.97 512.695 60.86 121.39
4/19/17 12:07:26 64.97 537.109 64.01 121
4/19/17 12:02:26 58.2 463.867 61.64 120.47
4/19/17 11:57:26 63.45 610.352 62.21 121.13
4/19/17 11:52:26 57.86 634.766 64.91 120.34
4/19/17 11:47:27 71.86 512.695 62.43 119.95
4/19/17 11:42:27 57.19 634.766 62.32 121.26
4/19/17 11:37:27 66.96 732.422 63.33 121.52
4/19/17 11:32:27 59.05 97.6563 59.06 114.3
4/19/17 11:27:28 65.43 610.352 60.41 121.52
4/19/17 11:22:28 54.84 659.18 61.03 121.13
4/19/17 11:17:28 67.57 659.18 59.51 122.18
4/19/17 11:12:28 58.32 634.766 59.45 121.66
4/19/17 11:07:29 61.18 634.766 60.18 121.79
4/19/17 11:02:29 74.33 683.594 60.13 122.18
4/19/17 10:57:29 64.56 244.141 62.6 116.14
4/19/17 10:52:29 61.33 268.555 58.55 124.81
4/19/17 10:47:30 60.38 268.555 56.53 121.52
4/19/17 10:42:30 71.97 610.352 59.11 124.28
4/19/17 10:37:30 53.44 195.312 58.89 118.24
4/19/17 10:32:31 64.87 146.484 56.08 117.71
4/19/17 10:27:31 60.33 439.453 57.59 122.31
4/19/17 10:22:31 61.13 463.867 56.36 122.44
4/19/17 10:17:31 59.45 292.969 57.59 117.85
4/19/17 10:12:32 53.98 561.523 59.11 122.44
4/19/17 10:07:32 54.15 512.695 56.64 123.5
4/19/17 10:02:32 62.12 439.453 55.12 125.73
4/19/17 09:57:32 56.76 439.453 56.36 121.26
4/19/17 09:52:33 45.44 146.484 55.12 121.66
4/19/17 09:47:33 46.96 73.2422 52.53 121.66
4/19/17 09:42:33 47.93 48.8281 52.19 120.47
4/19/17 09:37:34 45.72 97.6563 53.04 121.92
4/19/17 09:32:34 46.23 73.2422 53.94 121.26
4/19/17 09:27:34 56.11 219.727 53.66 125.99
4/19/17 09:19:32 47.68 48.8281 51.63 121
4/19/17 09:14:33 47.17 122.07 50.62 125.33
4/19/17 09:09:33 47.95 146.484 52.08 122.71
4/19/17 09:04:33 43.06 97.6563 50.96 121.39
4/19/17 08:59:34 49.45 24.4141 49.61 121.13
4/19/17 08:54:34 49.93 73.2422 49.55 121.79
4/19/17 08:49:34 44.31 122.07 50 124.15
4/19/17 08:44:34 46.23 73.2422 49.27 120.21
4/19/17 08:39:35 50.05 73.2422 49.21 121.13
4/19/17 08:34:35 47.51 24.4141 49.1 121
4/19/17 08:29:35 53.09 24.4141 49.49 122.31
4/19/17 08:24:36 43.01 48.8281 49.38 120.87
4/19/17 08:19:36 46.26 48.8281 48.99 119.69
4/19/17 08:14:36 46.17 0 49.44 120.21
4/19/17 08:09:36 40.86 73.2422 49.38 120.08
4/19/17 08:04:37 42.34 48.8281 48.59 119.42
4/19/17 07:59:37 44.07 48.8281 49.27 118.63
4/19/17 07:54:37 46.42 0 48.59 117.98
4/19/17 07:49:38 43.61 0 48.26 117.85
4/19/17 07:44:38 43.6 0 47.97 117.85
4/19/17 07:39:38 42.99 24.4141 48.03 117.58
4/19/17 07:34:38 40.73 0 48.88 117.45
4/19/17 07:29:39 45.32 0 48.03 116.53
4/19/17 07:24:39 44.66 0 47.86 115.35
4/19/17 07:19:39 44.43 0 47.97 115.09
4/19/17 07:14:40 38.96 0 47.53 113.77
4/19/17 07:09:40 40.86 0 47.69 112.85
4/19/17 07:04:40 40.75 0 47.47 111.8
4/19/17 06:59:40 39.95 0 47.47 107.99
4/19/17 06:54:41 41.86 0 46.85 108.65
4/19/17 06:49:41 41.64 0 47.02 105.23
4/19/17 06:44:41 38.73 0 47.24 101.42
4/19/17 06:39:42 40.84 0 46.96 97.88
4/19/17 06:34:42 36.23 0 46.96 95.77
4/19/17 06:29:42 37.35 0 46.68 94.07
4/19/17 06:24:42 37.13 0 46.68 88.29
4/19/17 06:19:43 37.02 0 46.68 78.83
4/19/17 06:14:43 36.7 0 46.68 68.45
4/19/17 06:09:43 35.68 0 46.74 58.99
4/19/17 06:04:44 35.99 0 46.68 45.85
4/19/17 05:59:49 34.92 0 46.74 31.4
4/19/17 05:54:44 36.05 0 47.13 12.22
4/19/17 05:49:44 37.49 0 46.79 4.6
4/19/17 05:44:45 37.52 0 47.13 1.97
4/19/17 05:39:45 37.1 0 46.96 0.53
4/19/17 05:34:45 37.85 0 46.74 0.79
4/19/17 05:29:46 38.08 0 47.02 0
4/19/17 05:24:46 38.31 0 47.08 0
4/19/17 05:19:46 38.09 0 47.08 0
4/19/17 05:14:46 39.83 0 47.41 0
4/19/17 05:09:47 43.08 0 47.36 0
4/19/17 05:04:47 40.46 0 47.58 0.13
4/19/17 04:59:47 39.85 0 47.47 0
4/19/17 04:54:48 41.19 0 47.53 0.26
4/19/17 04:49:48 40.79 0 47.41 0.13
4/19/17 04:44:48 41.41 0 47.81 0.26
4/19/17 04:39:48 39.93 0 47.58 0.92
4/19/17 04:34:49 42.13 0 47.3 0
4/19/17 04:29:49 39.57 0 47.41 0.66
4/19/17 04:24:49 38.38 0 47.36 0.13
4/19/17 04:19:50 40.02 0 47.3 0.26
4/19/17 04:14:50 38.11 0 47.13 0
4/19/17 04:09:50 38.11 0 47.13 0
4/19/17 04:04:55 39.66 0 47.13 0
4/19/17 03:59:51 41.97 0 47.3 0.26
4/19/17 03:54:51 38.38 0 47.13 0.26
4/19/17 03:49:51 36.63 0 46.85 0
4/19/17 03:44:52 36.8 0 47.08 0
4/19/17 03:39:52 34.92 0 46.74 0
4/19/17 03:34:52 37.64 0 46.96 0
4/19/17 03:29:52 34.09 0 46.74 0.13
4/19/17 03:24:53 38.27 0 46.91 0
4/19/17 03:19:53 33.56 0 47.02 0.13
4/19/17 03:14:53 36.47 0 47.08 0
4/19/17 03:09:59 37.69 0 46.96 0.39
4/19/17 03:04:59 37.06 0 47.24 0
4/19/17 02:59:54 36.57 0 47.24 0
4/19/17 02:54:55 37.02 0 47.53 0.26
4/19/17 02:49:55 34.98 0 47.81 0
4/19/17 02:44:55 37.58 0 48.03 0
4/19/17 02:39:55 38.08 0 47.86 0
4/19/17 02:34:56 36.99 0 47.81 0
4/19/17 02:29:56 37.72 0 47.92 0
4/19/17 02:24:56 38.27 0 48.2 0
4/19/17 02:19:57 38.28 0 48.43 0.26
4/19/17 02:14:57 37.51 0 48.14 0.13
4/19/17 02:09:57 38.33 0 48.2 0.26
4/19/17 02:04:57 37.41 0 48.59 0
4/19/17 01:59:58 35.67 0 48.76 0
4/19/17 01:54:58 38.98 0 48.65 0
4/19/17 01:49:58 37.69 0 48.65 0
4/19/17 01:44:59 39.14 0 48.65 0.39
4/19/17 01:39:59 38.95 0 48.76 0
4/19/17 01:34:59 39.25 0 48.88 0
4/19/17 01:29:59 38.96 0 48.99 0
4/19/17 01:25:00 38.03 0 48.71 0.13
4/19/17 01:20:00 34.66 0 49.04 0.13
4/19/17 01:15:00 38.6 0 49.04 0
4/19/17 01:10:00 37.54 0 48.88 0
4/19/17 01:05:01 39.72 0 49.04 0
4/19/17 01:00:01 37.77 0 48.93 0.13
4/19/17 00:55:01 38.24 0 48.88 0
4/19/17 00:50:02 37.06 0 48.71 0
4/19/17 00:45:02 38.39 24.4141 49.04 0
4/19/17 00:40:02 38.52 0 48.93 0
4/19/17 00:35:06 37.96 0 49.04 0
4/19/17 00:30:03 38.14 0 48.93 0
4/19/17 00:25:03 37.96 0 49.04 0
4/19/17 00:20:03 39.13 0 49.04 0
4/19/17 00:15:04 39.22 0 49.16 0
4/19/17 00:10:04 38.04 0 49.55 0
4/19/17 00:05:09 35.43 0 49.66 0
4/19/17 00:00:04 38.07 0 49.66 0
4/18/17 23:55:05 39.96 0 49.78 0
4/18/17 23:50:05 37.92 0 49.89 0
4/18/17 23:45:05 39.8 0 49.94 0.13
4/18/17 23:40:11 40.08 0 50 0
4/18/17 23:35:06 40.24 0 50 0
4/18/17 23:30:06 40.22 0 50.34 0
4/18/17 23:25:06 39.46 0 50.45 0.53
4/18/17 23:20:07 40.73 0 50.68 0
4/18/17 23:15:07 40.04 0 50.45 0
4/18/17 23:10:07 39.88 0 50.45 0
4/18/17 23:05:08 41.17 0 50.73 0.53
4/18/17 23:00:08 41.37 0 50.9 0
4/18/17 22:55:08 40.32 0 50.9 0.13
4/18/17 22:50:08 40.39 0 50.96 0
4/18/17 22:45:09 40.38 0 51.13 0
4/18/17 22:40:14 40.39 0 51.35 0.13
4/18/17 22:35:09 41.58 0 51.46 0.26
4/18/17 22:30:10 40.35 0 51.41 0
4/18/17 22:25:10 40.82 0 51.58 0
4/18/17 22:20:10 42.09 0 51.63 0
4/18/17 22:15:10 41.29 0 51.74 0
4/18/17 22:10:11 41.9 0 52.08 0
4/18/17 22:05:11 42.08 0 51.97 0
4/18/17 22:00:11 42.1 0 52.42 0
4/18/17 21:55:11 42.62 0 52.42 0
4/18/17 21:50:12 42.57 0 52.59 0
4/18/17 21:45:12 42.35 0 52.76 0
4/18/17 21:40:12 40.06 0 52.98 0.66
4/18/17 21:35:13 43.28 0 53.09 0
4/18/17 21:30:13 42.7 0 53.26 0.26
4/18/17 21:25:13 42.94 0 53.38 0.13
4/18/17 21:20:13 44.02 0 53.71 0
4/18/17 21:15:14 44.33 0 53.54 0
4/18/17 21:10:14 44.24 0 53.77 0
4/18/17 21:05:14 43.67 0 53.77 0.13
4/18/17 21:00:14 44.59 0 54.11 0.13
4/18/17 20:55:15 45.5 0 54.61 0
4/18/17 20:50:15 45.48 0 54.72 0
4/18/17 20:45:15 45.97 0 54.84 0
4/18/17 20:40:16 44.58 0 54.95 0
4/18/17 20:35:16 45.82 0 55.18 0
4/18/17 20:30:16 46.34 0 55.23 0
4/18/17 20:25:16 44.29 0 55.34 0
4/18/17 20:20:17 45.51 0 55.68 0.53
4/18/17 20:15:17 46.79 0 56.08 0.79
4/18/17 20:10:17 46.72 0 55.85 2.63
4/18/17 20:05:17 47.11 0 56.13 8.54
4/18/17 20:00:18 46.65 0 56.13 19.44
4/18/17 19:55:18 46.28 0 56.41 38.23
4/18/17 19:50:18 47.2 0 56.64 62.27
4/18/17 19:45:19 47.76 0 57.14 69.76
4/18/17 19:40:19 48.72 0 57.2 77.78
4/18/17 19:35:19 47.47 0 57.2 86.45
4/18/17 19:30:24 48.04 0 57.26 93.67
4/18/17 19:25:20 47.42 0 57.54 98.8
4/18/17 19:20:20 47.61 0 57.31 102.34
4/18/17 19:15:20 50.23 0 57.93 104.97
4/18/17 19:10:20 49.81 0 57.88 106.29
4/18/17 19:05:21 50.49 0 58.33 108.12
4/18/17 19:00:21 49.72 0 58.55 108.91
4/18/17 18:55:21 50.74 0 58.49 109.44
4/18/17 18:50:22 56.5 0 59.06 109.57
4/18/17 18:45:22 52.96 0 59.22 110.62
4/18/17 18:40:22 54.14 0 59.96 111.41
4/18/17 18:35:22 50.23 24.4141 60.07 111.93
4/18/17 18:30:23 52.85 0 60.8 111.67
4/18/17 18:25:23 55.55 0 60.18 112.2
4/18/17 18:20:23 54.19 0 61.08 113.38
4/18/17 18:15:23 55.56 0 61.19 115.35
4/18/17 18:10:24 53.92 0 61.76 117.19
4/18/17 18:05:24 56.1 0 61.08 115.88
4/18/17 18:00:24 59.71 0 61.53 118.5
4/18/17 17:55:24 60.84 0 62.21 120.61
4/18/17 17:50:25 58.29 341.797 62.71 121
4/18/17 17:45:25 60.2 463.867 63.33 121.26
4/18/17 17:40:25 65.84 463.867 65.13 121
4/18/17 17:35:25 79.07 585.938 68.62 121.13
4/18/17 17:30:26 79.48 585.938 68.73 121.26
4/18/17 17:25:26 67.72 561.523 68.62 120.47
4/18/17 17:20:26 65.88 585.938 69.91 119.69
4/18/17 17:15:26 88.81 610.352 77.62 117.19
4/18/17 17:10:27 98.64 610.352 80.43 116.93
4/18/17 17:05:27 80.09 610.352 78.18 117.19
4/18/17 17:00:27 85.15 708.008 80.88 117.32
4/18/17 16:55:27 88.15 708.008 82.62 117.45
4/18/17 16:50:28 77.53 756.836 77.56 117.58
4/18/17 16:45:28 84.03 805.664 78.29 117.71
4/18/17 16:40:29 88.62 854.492 84.93 117.58
4/18/17 16:35:28 100.66 805.664 81.16 116.66
4/18/17 16:30:29 96.32 878.906 80.82 116.14
4/18/17 16:25:29 93.92 830.078 84.43 115.61
4/18/17 16:20:29 92.27 781.25 85.72 116.14
4/18/17 16:15:29 98.31 781.25 78.86 117.06
4/18/17 16:10:30 105.06 878.906 81.33 116.93
4/18/17 16:05:30 74.23 683.594 80.82 116.8
4/18/17 16:00:30 81.44 756.836 84.37 115.74
4/18/17 15:55:30 80.56 756.836 81.56 115.88
4/18/17 15:50:30 97.42 781.25 82.18 116.53
4/18/17 15:45:31 98.72 610.352 81.16 115.48
4/18/17 15:40:31 85.68 878.906 83.36 115.74
4/18/17 15:35:31 89.77 830.078 83.3 115.61
4/18/17 15:30:31 90.98 903.32 82.01 116.4
4/18/17 15:25:32 126.9 903.32 78.74 116.53
4/18/17 15:20:32 95.49 878.906 82.29 116.27
4/18/17 15:15:32 114.7 952.148 84.26 115.74
4/18/17 15:10:32 78.87 903.32 81.72 116.4
4/18/17 15:05:33 93.97 878.906 75.82 117.58
4/18/17 15:00:33 101.19 927.734 79.36 116.66
4/18/17 14:55:33 91.99 976.562 82.85 117.06
4/18/17 14:50:33 87.54 952.148 82.23 115.88
4/18/17 14:45:34 88.56 878.906 84.54 115.48
4/18/17 14:40:34 98.74 952.148 78.69 114.96
4/18/17 14:35:34 97.18 903.32 83.36 115.09
4/18/17 14:30:34 89.83 976.562 81.44 116.66
4/18/17 14:25:34 109.08 976.562 83.3 116.27
4/18/17 14:20:35 88.5 952.148 83.64 115.09
4/18/17 14:15:35 77.06 1000.98 80.26 116.4
4/18/17 14:10:35 84.66 1000.98 81.27 115.48
4/18/17 14:05:35 95.61 1025.39 77.39 116.01
4/18/17 14:00:36 84.84 976.562 80.77 114.43
4/18/17 13:55:36 105.5 976.562 82.12 115.09
4/18/17 13:50:36 96.15 976.562 81.22 114.82
4/18/17 13:45:36 128.64 976.562 82.85 116.14
4/18/17 13:40:37 85.55 976.562 84.09 114.96
4/18/17 13:35:37 99.14 976.562 83.07 114.96
4/18/17 13:30:37 114.48 1000.98 80.43 115.48
4/18/17 13:25:37 124.45 952.148 83.58 114.96
4/18/17 13:20:38 84.88 927.734 80.77 114.96
4/18/17 13:15:38 88.92 952.148 82.85 115.22
4/18/17 13:10:38 89.05 952.148 78.12 114.56
4/18/17 13:05:38 93.19 952.148 79.7 114.69
4/18/17 13:00:38 109.43 927.734 76.66 115.48
4/18/17 12:55:40 89.45 903.32 83.47 115.35
4/18/17 12:50:39 90.91 927.734 79.36 115.61
4/18/17 12:45:39 92.05 903.32 78.63 115.22
4/18/17 12:40:44 93.07 927.734 77.62 115.48
4/18/17 12:35:40 100.92 854.492 73.34 115.22
4/18/17 12:30:40 111.61 878.906 74.81 115.61
4/18/17 12:25:45 119.86 878.906 76.1 116.27
4/18/17 12:20:40 118.48 830.078 70.31 115.88
4/18/17 12:15:41 86.18 830.078 73.01 115.74
4/18/17 12:10:46 93.16 781.25 73.79 116.14
4/18/17 12:05:41 71.08 781.25 69.46 116.53
4/18/17 12:00:41 75.25 732.422 72.11 116.14
4/18/17 11:55:42 109.95 756.836 72.39 116.53
4/18/17 11:50:42 81.65 756.836 73.4 116.66
4/18/17 11:45:47 120.61 732.422 71.43 117.98
4/18/17 11:40:42 60.55 732.422 72.05 118.24

Previous 1 2 3 4 5 6 7 8 9 10 11 12 13 14 15 16 17 Next